TimeEDT,TemperatureF,Dew PointF,Humidity,Sea Level PressureIn,VisibilityMPH,Wind Direction,Wind SpeedMPH,Gust SpeedMPH,PrecipitationIn,Events,Conditions,WindDirDegrees,DateUTC
12:53 AM,75.9,73.0,91,30.23,10.0,Calm,Calm,-,N/A,,Clear,0,2013-07-17 04:53:00
1:53 AM,75.9,73.9,94,30.22,10.0,Calm,Calm,-,N/A,,Mostly Cloudy,0,2013-07-17 05:53:00
2:53 AM,75.0,73.0,94,30.22,10.0,Calm,Calm,-,N/A,,Scattered Clouds,0,2013-07-17 06:53:00
3:53 AM,75.0,72.0,90,30.21,10.0,Calm,Calm,-,N/A,,Scattered Clouds,0,2013-07-17 07:53:00
4:53 AM,73.9,72.0,93,30.22,10.0,Calm,Calm,-,N/A,,Clear,0,2013-07-17 08:53:00
5:53 AM,75.0,72.0,90,30.22,10.0,Calm,Calm,-,N/A,,Clear,0,2013-07-17 09:53:00
6:19 AM,73.4,71.6,94,30.22,9.0,Calm,Calm,-,N/A,,Partly Cloudy,0,2013-07-17 10:19:00
6:53 AM,73.0,71.1,93,30.22,6.0,Calm,Calm,-,N/A,,Clear,0,2013-07-17 10:53:00
7:53 AM,75.0,71.1,87,30.23,9.0,Calm,Calm,-,N/A,,Clear,0,2013-07-17 11:53:00
8:53 AM,80.1,71.1,74,30.23,10.0,NW,4.6,-,N/A,,Clear,320,2013-07-17 12:53:00
9:53 AM,82.9,72.0,69,30.23,10.0,NNW,3.5,-,N/A,,Clear,330,2013-07-17 13:53:00
10:53 AM,88.0,72.0,59,30.23,10.0,North,5.8,-,N/A,,Clear,10,2013-07-17 14:53:00
11:53 AM,91.0,72.0,53,30.21,10.0,Calm,Calm,-,N/A,,Clear,0,2013-07-17 15:53:00
12:53 PM,91.0,70.0,50,30.19,10.0,Calm,Calm,-,N/A,,Partly Cloudy,0,2013-07-17 16:53:00
1:53 PM,91.9,69.1,47,30.17,10.0,Calm,Calm,-,N/A,,Mostly Cloudy,0,2013-07-17 17:53:00
2:53 PM,93.0,70.0,47,30.15,10.0,WSW,4.6,-,N/A,,Scattered Clouds,250,2013-07-17 18:53:00
3:53 PM,82.9,73.0,72,30.13,10.0,NW,4.6,-,0.04,Rain,Light Rain,320,2013-07-17 19:53:00
4:53 PM,86.0,70.0,59,30.13,10.0,NNW,6.9,-,N/A,,Clear,330,2013-07-17 20:53:00
5:53 PM,82.0,72.0,71,30.13,10.0,North,11.5,17.3,N/A,,Clear,10,2013-07-17 21:53:00
6:53 PM,78.1,68.0,71,30.14,10.0,East,5.8,-,N/A,,Scattered Clouds,90,2013-07-17 22:53:00
7:53 PM,73.9,69.1,85,30.14,9.0,Calm,Calm,-,0.03,Rain,Light Rain,0,2013-07-17 23:53:00
8:53 PM,73.9,70.0,87,30.16,10.0,West,3.5,-,0.02,Rain,Light Rain,270,2013-07-18 00:53:00
9:53 PM,73.9,71.1,91,30.15,7.0,North,3.5,-,0.01,,Mostly Cloudy,10,2013-07-18 01:53:00
10:20 PM,73.4,71.6,94,30.16,8.0,Calm,Calm,-,N/A,,Partly Cloudy,0,2013-07-18 02:20:00
10:53 PM,73.9,71.1,91,30.17,8.0,Calm,Calm,-,N/A,,Clear,0,2013-07-18 02:53:00
11:08 PM,73.4,71.6,94,30.19,6.0,Calm,Calm,-,N/A,,Partly Cloudy,0,2013-07-18 03:08:00
11:53 PM,73.9,70.0,87,30.19,8.0,NW,3.5,-,N/A,,Partly Cloudy,310,2013-07-18 03:53:00